weather.gov     
National Weather Service

Regional Weather Roundup
NWS Homepage
This page is being discontinued on March 12, 2014.
The same data is available at this site. Please update your bookmarks.
Thank you, and we apologize for the inconvenience.
Please send an email to SR-SRH.Webmaster@noaa.gov with any concerns.


Current Version
Previous Version:    01  02  03  04  05  06  07  08  09  10  11  12  13  14  15  16  17  18  19  20  21  22  23  24  
[Printable]
231
ASUS44 KSJT 311410
RWRSJT
WEST CENTRAL TEXAS REGIONAL WEATHER ROUNDUP
NATIONAL WEATHER SERVICE SAN ANGELO TX
900 AM CDT FRI OCT 31 2014

NOTE: "FAIR" INDICATES FEW OR NO CLOUDS BELOW 12,000 FEET WITH NO
SIGNIFICANT WEATHER AND/OR OBSTRUCTIONS TO VISIBILITY.

TXZ049-054-064>066-071>073-076>078-098-099-113-114-127-128-139-140-
154-155-168>170-311500
...LOCATIONS ACROSS WEST CENTRAL TEXAS...

CITY           SKY/WX    TMP DP  RH WIND       PRES   REMARKS
SAN ANGELO     SUNNY     59  38  45 NE12      30.34R
ABILENE        SUNNY     50  37  61 N8        30.38R
DYESS AFB      SUNNY     51  36  55 N10       30.37R
JUNCTION       SUNNY     62  43  49 NE12      30.31R
SWEETWATER     SUNNY     51  35  55 N7        30.41R
BROWNWOOD      SUNNY     57  39  51 N5        30.34R
COLEMAN        SUNNY     55  40  56 N10       30.35R
SONORA         SUNNY     61  43  51 NE10      30.36R
OZONA          FAIR      59  41  51 NE9       30.36R
BRADY          SUNNY     57  41  54 N9        30.32R
$$

TEXAS PANHANDLE/OKLAHOMA PANHANDLE

CITY           SKY/WX    TMP DP  RH WIND       PRES   REMARKS
AMARILLO       CLEAR     39  32  76 N6        30.46R WCI  35
BORGER         CLEAR     41  30  65 NE8       30.47R WCI  36
CANADIAN       CLEAR     41  37  83 N6        30.47R WCI  38
DALHART        PTCLDY    40  30  67 NE8       30.47R WCI  34
DUMAS            N/A     33  28  81 NW3       30.47R
GUYMON         NOT AVBL
HEREFORD       MOSUNNY   37  33  86 MISG      30.45R
PAMPA          SUNNY     39  33  78 NE7       30.46R WCI  34
PERRYTON       CLEAR     37  33  84 NE8       30.47R WCI  31
$$

SOUTHERN PANHANDLE/SOUTH PLAINS/ROLLING PLAINS

CITY           SKY/WX    TMP DP  RH WIND       PRES   REMARKS
LUBBOCK        CLEAR     48  32  53 NE12      30.41R
SNYDER         SUNNY     50  33  53 NE12      30.39R
CHILDRESS      SUNNY     48  34  58 N8        30.44R
SEMINOLE       SUNNY     47  32  56 NE6       30.41R
$$

PERMIAN BASIN

CITY           SKY/WX    TMP DP  RH WIND       PRES   REMARKS
MIDLAND        SUNNY     50  36  58 N6        30.38R
ODESSA         SUNNY     50  35  56 NE8       30.38R
WINK           PTCLDY    51  36  56 N7        30.37R
$$

FAR WEST/SOUTHWEST MOUNTAINS/TRANS PECOS

CITY           SKY/WX    TMP DP  RH WIND       PRES   REMARKS
ALPINE         CLOUDY    57  52  85 NE9       30.43R
DRYDEN           N/A     67  48  50 NE10G21   30.30R
EL PASO        PTCLDY    58  46  64 E5        30.32R
FORT STOCKTON  MOSUNNY   59  48  67 E8        30.36R
GUADALUPE PASS CLEAR     51  30  44 NE33G39   30.40R
MARFA          CLOUDY    55  52  88 NE14      30.39R
PECOS          MOSUNNY   55  41  58 N9        30.37R
$$

DALLAS/FORT WORTH METROPLEX

CITY           SKY/WX    TMP DP  RH WIND       PRES   REMARKS
DFW AIRPORT    SUNNY     56  42  59 N12       30.30R
FTW MEACHAM    SUNNY     56  40  55 N14       30.31R
DAL-EXECUTIVE  SUNNY     58  41  53 N15       30.29R
GRAND PRAIRIE  SUNNY     57  43  58 MISG      30.32R
ADDISON        SUNNY     54  41  62 N13G23    30.30R
MESQUITE       SUNNY     57  43  58 N18G25    30.29R
LANCASTER      SUNNY     57  39  51 N14       30.30R
$$

NORTH CENTRAL TEXAS

CITY           SKY/WX    TMP DP  RH WIND       PRES   REMARKS
SHRMAN/DENISON SUNNY     53  44  71 N12       30.33R
GAINESVILLE    SUNNY     52  40  64 N14       30.35R
BRIDGEPORT     SUNNY     53  41  64 N7        30.36R
DENTON         SUNNY     53  40  61 N15       30.31R
WAXAHACHIE     SUNNY     56  43  60 N15G21    30.29R
GRANBURY       SUNNY     54  46  75 NW5       30.33R
$$

WESTERN NORTH TEXAS

CITY           SKY/WX    TMP DP  RH WIND       PRES   REMARKS
WICHITA FALLS  SUNNY     51  37  58 NE15      30.37R
VERNON         SUNNY     52  36  54 N10       30.42R
BRECKENRIDGE   SUNNY     54  37  51 N5        30.37R
COMANCHE       SUNNY     53  44  72 N9        30.33R
$$

CENTRAL AND SOUTH CENTRAL TEXAS

CITY           SKY/WX    TMP DP  RH WIND       PRES   REMARKS
AUSTIN/BERGSTM PTSUNNY   59  53  80 N12       30.24R
WACO           SUNNY     56  44  64 NW9       30.27R
HILLSBORO      SUNNY     57  43  59 N13       30.27R
TEMPLE         SUNNY     57  41  54 NW10      30.26R
KILLEEN-GRAY   SUNNY     57  47  67 N12       30.28R
FORT HOOD      NOT AVBL
GEORGETOWN     SUNNY     61  48  63 N10       30.26R
LAGO VISTA     FAIR      58  49  71 N8G18     30.28R
SAN MARCOS     SUNNY     61  52  72 N12       30.25R
NEW BRAUNFELS  PTSUNNY   64  54  69 NE9       30.23R
RANDOLPH AFB   CLOUDY    64  56  76 N10       30.24R
SAN ANTONIO    CLOUDY    65  58  78 N9        30.25R
STINSON        CLOUDY    66  57  72 NE10      30.22R
PLEASANTON     NOT AVBL
LA GRANGE      PTSUNNY   63  56  78 N3        30.20R
GIDDINGS       MOSUNNY   60  51  72 N8        30.26R
$$

EAST TEXAS

CITY           SKY/WX    TMP DP  RH WIND       PRES   REMARKS
PARIS          SUNNY     52  39  62 N10       30.27R
CLARKSVILLE    NOT AVBL
TYLER          SUNNY     56  45  66 N8        30.23R
LONGVIEW       SUNNY     56  46  69 N9        30.20R
PALESTINE      SUNNY     54  48  82 NW3       30.23R
NACOGDOCHES    SUNNY     57  46  67 N10       30.19R
$$

TEXAS HILL COUNTRY AND EDWARDS PLATEAU

CITY           SKY/WX    TMP DP  RH WIND       PRES   REMARKS
LLANO          SUNNY     61  45  55 N7        30.34R
HORSESHOE BAY  FAIR      60  47  61 CALM      30.29R
KERRVILLE      SUNNY     59  55  87 N3        30.29R
FREDERICKSBRG  SUNNY     58  50  74 NE7       30.29R HAZE
ROCKSPRINGS    SUNNY     61  52  72 CALM      30.32R
HONDO          PTSUNNY   61  60  97 NE9       30.26R
UVALDE         PTSUNNY   68  67  95 NE9       30.24R
DEL RIO        CLOUDY    72  59  63 NE9G20    30.23R
$$

SOUTHEAST TEXAS

CITY           SKY/WX    TMP DP  RH WIND       PRES   REMARKS
COLLEGE STN    SUNNY     62  47  57 N10       30.22R
CALDWELL       SUNNY     61  48  63 NW13      30.26R
CROCKETT       SUNNY     59  50  72 N8        30.23R
BRENHAM        SUNNY     62  52  70 N10       30.22R
HUNTSVILLE     SUNNY     58  50  75 N6        30.20R
CONROE         SUNNY     60  50  69 N8        30.19R
HOUSTON BUSH   MOSUNNY   63  50  62 N9        30.17R
HOUSTON HOBBY  MOSUNNY   66  53  63 N9        30.15R
PERLAND        SUNNY     66  54  65 N7        30.17R
WHARTON        PTSUNNY   66  56  71 N6        30.20R
$$

THE UPPER TEXAS COAST

CITY           SKY/WX    TMP DP  RH WIND       PRES   REMARKS
ORANGE         SUNNY     57  53  87 NW3       30.15R
PORT ARTHUR    SUNNY     60  52  74 NW8       30.13R
GALVESTON      SUNNY     70  58  65 NW8       30.15R
ANGLETON       SUNNY     65  60  84 N7        30.16R
BAY CITY         N/A     66  64  91 N6        30.17R
$$

TEXAS COASTAL BEND, RIO GRANDE PLAINS DEEP SOUTH TEXAS

CITY           SKY/WX    TMP DP  RH WIND       PRES   REMARKS
VICTORIA       CLOUDY    68  58  70 N8        30.19R
BEEVILLE       RAIN      68  68 100 N5        30.18R
ROCKPORT       CLOUDY    71  66  84 NE8       30.16R
PORT ARANSAS   CLOUDY    72  68  87 NE8       30.16R
PORT LAVACA    NOT AVBL
CORPUS CHRISTI TSTM      70  68  93 N9        30.17R FOG
KINGSVILLE NAS TSTM      68  68 100 E14       30.17R VSB 1
COTULLA        CLOUDY    67  64  90 N5        30.22R
LAREDO         RAIN      66  65  97 NE12      30.24R
BROWNSVILLE    SUNNY     73  71  93 CALM      30.12R FOG
PORT ISABEL    SUNNY     73  70  90 NW6       30.12R FOG
HEBBRONVILLE   RAIN      64  63  96 N6        30.22R
MCALLEN        SUNNY     72  69  90 N5        30.14R
WESLACO        SUNNY     71  67  89 CALM      30.13R FOG
FALFURRIAS     CLOUDY    67  65  93 NW12G24   30.16R
EDINBURG       CLOUDY    69  66  92 N3        30.14R FOG
$$




U.S. Dept. of Commerce
NOAA National Weather Service
1325 East West Highway
Silver Spring, MD 20910
E-mail: w-nws.webmaster@noaa.gov
Page last modified: May 16, 2007
NATIONAL WEATHER SERVICE: for Safety, for Work, for Fun - FOR LIFE